Springfield, CO

8:19 PM MDT on May 27, 2017 (GMT -0600)
Springfield

Weather History for KSPD - February, 2013

Change the Weather History Date:

Tuesday, February 19, 2013

  Actual Average Record
Temperature  
Mean Temperature 32 °F -  
Max Temperature 53 °F 51 °F 73 °F (2011)
Min Temperature 10 °F 21 °F 5 °F (2006)
Degree Days  
Heating Degree Days 33 29  
Month to date heating degree days 530 580  
Since 1 July heating degree days 3460 3756  
Cooling Degree Days 0 0  
Month to date cooling degree days 0 0  
Year to date cooling degree days 0 0  
Moisture  
Dew Point 12 °F    
Average Humidity 46    
Maximum Humidity 67    
Minimum Humidity 24    
Precipitation  
Precipitation 0.00 in 0.01 in 0.13 in (2003)
Month to date precipitation 0.04 0.32  
Year to date precipitation 0.06 0.69  
Sea Level Pressure  
Sea Level Pressure 30.03 in    
Wind  
Wind Speed 18 mph (SSW)    
Max Wind Speed 33 mph    
Max Gust Speed 44 mph    
T = Trace of Precipitation, MM = Missing Value Source: NWS Daily Summary

Daily Weather History Graph

Daily Weather History Graph

Search for Another Location

Airport or City:

Trip Planner

Search our weather history database for the weather conditions in past years. The results will help you decide how hot, cold, wet, or windy it might be!

Date:

Astronomy

Feb. 19, 2013 Rise Set
Actual Time 6:34 AM MST 5:34 PM MST
Civil Twilight 6:07 AM MST 6:01 PM MST
Nautical Twilight 5:37 AM MST 6:31 PM MST
Astronomical Twilight 5:07 AM MST 7:01 PM MST
Moon 12:11 PM MST (2/19) 2:03 AM MST (2/19)
Length of Visible Light 11h 53m
Length of Day
11h 00m
Waxing Gibbous, 68% of the Moon is Illuminated
Feb 19
Waxing Gibbous
Feb 25
Full
Mar 4
Last Quarter
Mar 11
New
Mar 19
First Quarter

Hourly Weather History & Observations

Time (MST) Temp. Windchill Dew Point Humidity Pressure Visibility Wind Dir Wind Speed Gust Speed Precip Events Conditions
12:56 AM 19.9 °F - 6.1 °F 55% 30.13 in - Calm Calm - N/A   Unknown
1:56 AM 18.0 °F - 6.1 °F 60% 30.15 in - Calm Calm - N/A   Unknown
2:56 AM 14.0 °F - 3.0 °F 62% 30.13 in - Calm Calm - N/A   Unknown
3:56 AM 10.0 °F 3.6 °F -0.0 °F 64% 30.15 in - WSW 3.5 mph - N/A   Unknown
4:56 AM 12.0 °F 4.1 °F 1.9 °F 64% 30.15 in - WSW 4.6 mph - N/A   Unknown
5:56 AM 12.0 °F 1.5 °F 3.0 °F 67% 30.20 in - WSW 6.9 mph - N/A   Unknown
6:56 AM 12.0 °F 4.1 °F 3.0 °F 67% 30.19 in - WSW 4.6 mph - N/A   Unknown
7:56 AM 27.0 °F 18.7 °F 10.0 °F 49% 30.19 in - South 8.1 mph - N/A   Unknown
8:56 AM 34.0 °F 24.2 °F 10.0 °F 37% 30.16 in - South 15.0 mph - N/A   Unknown
9:56 AM 39.9 °F 29.0 °F 12.0 °F 32% 30.12 in - SSW 26.5 mph 32.2 mph N/A   Unknown
10:56 AM 45.0 °F 35.2 °F 14.0 °F 29% 30.07 in - SSW 29.9 mph 39.1 mph N/A   Unknown
11:56 AM 46.9 °F - 15.1 °F 28% 30.02 in - SSW 26.5 mph 35.7 mph N/A   Unknown
12:56 PM 50.0 °F - 16.0 °F 26% 29.97 in - SSW 27.6 mph 38.0 mph N/A   Unknown
1:56 PM 50.0 °F - 16.0 °F 26% 29.94 in - SSW 29.9 mph 40.3 mph N/A   Unknown
2:56 PM 52.0 °F - 16.0 °F 24% 29.92 in - SSW 29.9 mph 34.5 mph N/A   Unknown
3:56 PM 51.1 °F - 16.0 °F 25% 29.92 in - SSW 25.3 mph 39.1 mph N/A   Unknown
5:56 PM 46.0 °F 37.8 °F 16.0 °F 30% 29.94 in - South 23.0 mph 33.4 mph N/A   Unknown
6:56 PM 42.1 °F 31.7 °F 17.1 °F 37% 29.95 in - South 27.6 mph 34.5 mph N/A   Unknown
7:56 PM 39.0 °F 27.8 °F 17.1 °F 41% 29.93 in - South 26.5 mph - N/A   Unknown
8:56 PM 36.0 °F 24.4 °F 17.1 °F 46% 29.92 in - South 23.0 mph - N/A   Unknown
9:56 PM 35.1 °F 23.3 °F 17.1 °F 48% 29.87 in - South 23.0 mph 32.2 mph N/A   Unknown
10:56 PM 33.1 °F 22.2 °F 16.0 °F 50% 29.87 in - South 17.3 mph - N/A   Unknown
11:56 PM 30.9 °F 18.7 °F 17.1 °F 57% 29.83 in - South 19.6 mph - N/A   Unknown